Wind_Speed
18 17 15 14 13 12 13 14 15 17 19 19 18 17 16 15 15 15 15 14 14 13 12 12 13 13 13 12 11 10 8 7 8 12 13 18 23 27 25 23 23 20 18
20 20 18 16 15 14 14 14 15 17 19 19 17 15 15 14 13 12 13 13 12 12 13 13 13 12 12 12 11 11 10 9 8 10 12 13 14 14 16 17 17 17 18
24 22 20 18 17 16 15 16 16 17 17 18 16 14 14 13 13 13 12 11 12 12 12 12 13 13 12 12 12 11 11 11 11 12 13 14 16 16 16 15 16 14 14
27 26 24 21 19 18 17 16 15 16 17 17 14 13 13 13 13 12 13 12 11 11 11 12 13 13 12 12 13 13 13 13 14 14 13 14 15 17 19 20 19 16 15
31 30 28 23 21 20 19 17 16 16 16 16 14 12 12 12 12 13 13 13 13 13 12 12 11 11 12 13 13 13 13 13 14 14 15 16 17 19 19 20 21 21 17
31 32 29 26 24 22 20 18 17 17 17 16 13 12 11 12 12 13 13 13 13 14 14 14 14 14 12 11 12 12 11 10 13 16 17 15 16 16 17 19 19 20 19
24 30 30 29 27 24 21 20 19 17 17 16 14 12 11 11 12 12 15 13 13 14 15 16 16 14 14 14 13 14 15 15 15 16 17 16 20 19 19 20 20 21 22
22 27 29 30 29 26 24 22 20 18 17 16 15 14 13 11 11 12 14 14 15 15 17 16 16 16 16 16 16 17 18 17 16 17 19 20 19 19 18 21 22 23 27
26 27 30 30 30 28 25 22 20 19 17 17 15 15 14 13 12 12 13 15 16 15 16 16 15 17 17 15 16 18 19 18 17 16 17 19 21 20 17 20 22 24 22
27 26 28 30 29 27 23 21 20 19 17 17 16 15 15 12 13 13 13 16 16 17 17 16 13 15 16 14 15 18 22 22 21 19 18 20 21 21 21 21 24 26 22
24 23 24 26 27 25 22 22 19 19 18 17 16 15 16 14 13 14 13 14 16 17 14 16 16 15 15 14 15 18 20 21 22 25 26 25 24 23 20 19 20 21 22
23 21 21 24 26 25 22 20 19 19 18 17 17 16 17 15 15 15 15 14 14 14 16 17 19 15 16 16 15 19 21 21 22 25 26 24 21 20 19 19 18 17 17
23 21 21 23 25 23 22 20 19 19 18 17 17 16 16 16 15 15 17 15 14 14 16 17 17 17 16 18 20 19 18 19 20 21 22 22 21 22 22 21 21 23 24
23 22 21 24 24 23 22 21 20 20 19 17 17 17 17 16 16 16 16 15 15 15 16 17 18 18 19 21 20 18 17 17 18 19 21 23 24 24 24 24 25 25 26
23 22 22 23 24 23 22 20 19 18 19 18 17 18 18 17 16 17 16 14 15 15 15 20 22 21 21 19 17 16 17 17 18 19 21 22 22 23 24 24 25 26 27
23 22 23 24 24 23 21 20 19 19 19 18 18 18 17 18 16 17 17 13 14 12 14 20 21 20 19 18 18 17 17 18 19 21 21 22 23 24 25 25 25 25 26
22 21 22 25 24 23 22 19 21 20 20 19 19 17 18 18 18 18 18 14 13 12 15 18 19 18 19 18 18 20 21 21 21 22 23 23 23 24 24 25 25 26 28
19 21 23 24 23 21 23 20 21 20 21 20 18 17 18 18 19 18 17 15 15 13 16 17 17 17 18 19 20 21 22 22 23 24 24 24 24 25 25 26 27 27 27
19 22 23 23 23 24 22 21 22 22 21 20 19 17 17 18 18 18 16 16 15 15 15 15 15 17 18 20 21 22 23 23 24 25 26 27 27 26 26 26 26 27 26
18 21 23 25 25 26 21 23 24 24 22 22 19 17 16 18 18 16 16 15 15 15 15 16 16 17 18 20 22 22 24 24 25 27 26 25 25 24 27 26 27 28 28
24 24 26 28 30 25 24 24 24 23 24 23 19 17 17 18 18 17 15 14 15 15 14 16 16 17 19 20 22 22 23 25 26 26 25 25 26 28 28 28 27 28 29
25 25 27 29 26 26 27 27 24 25 23 23 20 18 18 18 18 17 15 14 15 14 14 16 16 17 19 21 22 22 25 26 26 26 27 28 29 30 30 31 30 29 29
27 25 25 28 28 26 27 28 27 26 24 22 20 20 18 18 18 16 15 15 15 14 14 15 16 18 19 20 21 21 24 25 25 26 28 30 31 32 32 33 31 30 29
31 29 28 27 27 27 28 28 30 26 25 23 21 20 19 18 18 16 14 15 15 14 14 15 16 18 20 20 21 21 22 22 23 26 29 30 32 32 30 31 29 27 26
33 31 29 30 29 27 28 28 29 27 25 24 22 21 19 18 18 15 14 15 14 14 13 14 16 17 19 20 20 21 20 21 23 25 28 28 28 27 26 25 24 24 24
33 34 33 31 30 27 27 28 28 26 24 23 22 20 18 19 17 15 14 14 14 14 14 14 15 17 18 19 20 19 19 22 24 25 27 26 23 23 22 21 21 22 23
Wind_Direction
256 257 264 272 281 294 310 320 327 333 336 339 340 340 342 344 345 347 349 353 354 355 350 346 345 344 343 340 335 327 324 310 288 283 289 287 297 300 302 306 310 307 295
253 253 260 267 276 287 298 308 320 328 334 337 337 337 339 340 342 346 347 348 352 353 352 352 352 351 349 348 348 346 340 332 321 323 314 314 309 307 303 303 301 304 302
253 255 258 265 272 280 290 301 311 321 328 330 329 330 332 335 339 343 347 348 349 351 352 350 349 349 348 350 350 347 345 344 339 335 331 332 326 325 319 321 317 316 312
252 253 257 261 267 271 277 286 299 311 319 323 322 323 326 329 331 334 338 341 343 344 346 345 343 343 340 336 334 333 332 331 333 333 328 326 327 327 327 325 319 322 322
250 250 254 256 261 266 272 279 289 300 310 314 312 314 318 320 320 323 328 330 333 335 336 338 336 332 329 326 324 322 320 317 318 319 321 322 324 330 332 330 327 326 326
250 249 252 253 257 262 267 273 281 293 302 305 304 302 305 309 312 315 319 324 324 324 325 327 326 323 320 313 307 309 307 309 305 303 305 307 311 316 318 318 321 331 333
257 247 248 250 254 258 263 269 276 285 294 297 292 288 292 299 302 304 309 315 314 316 317 318 318 317 316 313 307 298 296 295 291 287 288 293 301 308 309 312 316 313 316
271 250 246 246 249 252 258 265 269 278 288 290 285 285 289 291 294 297 296 308 309 311 310 310 311 311 313 312 311 307 306 303 298 291 287 292 296 301 300 302 302 299 307
279 266 247 243 244 246 252 260 265 272 282 285 279 280 286 291 292 295 293 301 304 306 305 306 306 308 311 314 310 308 309 308 306 296 287 286 289 288 292 289 289 296 301
289 277 255 243 241 242 250 256 262 270 279 280 276 279 284 287 288 290 293 299 303 304 303 297 299 307 310 314 308 308 304 308 312 307 296 288 285 285 284 284 285 287 289
288 274 253 241 237 236 245 252 259 268 276 277 273 277 283 288 291 293 295 298 302 305 305 303 310 312 313 311 304 294 299 305 299 293 295 295 296 294 290 285 282 279 276
284 271 251 237 228 233 244 249 257 265 271 273 269 278 283 285 292 293 294 298 296 290 292 299 309 317 312 303 298 298 299 298 293 294 297 300 300 297 293 291 291 287 274
279 268 248 230 228 235 244 248 255 264 269 269 270 278 280 284 288 291 292 294 289 287 293 303 299 300 301 305 312 312 309 304 298 296 297 298 300 300 298 294 290 287 284
273 263 241 229 231 240 244 246 256 262 266 263 267 276 280 283 287 290 291 290 287 297 306 304 306 308 307 309 308 309 308 308 306 304 304 303 302 301 299 300 298 297 292
268 255 239 234 240 244 246 252 260 266 263 261 267 273 277 281 286 291 295 299 301 300 304 299 303 305 308 310 310 310 309 309 307 305 303 303 302 300 298 298 296 297 293
261 250 244 242 246 247 249 254 263 267 261 262 266 272 277 283 290 295 295 286 282 289 292 290 297 306 308 310 312 313 314 314 312 306 303 301 300 299 299 298 297 296 296
253 249 249 247 245 245 248 255 265 263 259 260 266 273 279 281 286 291 292 285 285 287 284 293 300 304 306 308 312 315 315 315 312 309 306 305 303 301 299 297 296 294 294
251 250 248 248 247 247 248 260 260 259 259 261 261 268 273 277 281 287 289 287 286 290 289 295 299 302 306 309 313 315 316 315 313 311 308 307 306 303 300 298 297 295 294
258 254 252 249 246 250 257 257 258 257 255 259 259 264 270 274 277 284 284 281 291 292 292 295 300 304 307 310 314 316 315 315 315 315 312 310 309 305 301 298 295 293 293
273 264 255 252 250 253 259 258 262 259 258 259 258 263 263 271 276 279 280 282 286 288 292 297 303 306 307 311 315 316 316 316 316 316 314 312 311 306 301 301 296 293 291
264 259 259 255 254 256 256 258 260 260 261 263 264 266 270 271 277 281 284 285 286 285 291 296 303 306 309 314 317 318 316 315 317 317 316 315 312 309 308 303 299 295 292
266 264 256 259 259 258 258 263 259 259 258 262 266 265 268 271 279 282 285 284 281 282 288 295 302 308 313 316 317 317 316 318 320 320 319 317 314 310 307 305 300 296 293
262 254 255 255 256 256 257 261 262 261 261 261 264 265 265 270 275 279 282 280 277 279 284 292 300 306 311 313 313 314 315 318 320 320 320 318 315 310 307 304 300 294 291
255 252 248 248 253 252 252 257 262 260 259 261 262 266 268 270 276 279 279 275 276 277 284 292 299 305 309 313 314 314 314 318 321 326 324 315 311 309 306 303 298 295 292
253 249 246 247 248 254 253 253 257 255 256 260 262 265 268 271 275 278 276 273 273 276 282 293 301 304 310 313 315 315 314 322 328 324 319 313 308 307 304 302 299 298 294
252 247 245 244 245 246 249 254 256 253 253 257 263 264 266 271 274 276 272 271 270 276 285 295 303 305 312 317 318 318 322 327 329 327 323 321 316 315 314 309 306 303 300
Height
1496 1496 1496 1495 1494 1493 1492 1490 1488 1485 1483 1480 1477 1474 1471 1467 1464 1461 1458 1455 1453 1451 1450 1447 1445 1442 1440 1438 1436 1434 1432 1430 1431 1429 1430 1428 1427 1424 1427 1427 1422 1423 1422
1491 1491 1491 1491 1490 1490 1488 1486 1484 1482 1480 1477 1473 1470 1468 1466 1463 1460 1457 1455 1452 1450 1448 1446 1445 1443 1440 1438 1436 1434 1432 1431 1431 1427 1428 1425 1429 1424 1423 1421 1423 1421 1418
1487 1487 1487 1488 1487 1487 1485 1483 1481 1479 1476 1473 1471 1469 1466 1463 1461 1459 1457 1454 1452 1449 1447 1446 1444 1442 1441 1439 1437 1435 1433 1431 1429 1426 1424 1422 1423 1421 1421 1418 1417 1417 1414
1479 1480 1480 1481 1481 1480 1479 1478 1477 1475 1472 1470 1467 1466 1464 1461 1459 1457 1454 1452 1451 1449 1447 1445 1443 1441 1440 1438 1437 1434 1432 1430 1428 1426 1424 1423 1420 1417 1414 1412 1413 1412 1411
1470 1471 1471 1473 1474 1474 1474 1474 1472 1471 1468 1465 1463 1461 1460 1459 1457 1455 1453 1451 1449 1447 1445 1443 1441 1440 1438 1436 1435 1433 1431 1429 1427 1426 1424 1422 1419 1415 1414 1411 1410 1409 1408
1462 1464 1466 1468 1468 1468 1468 1467 1467 1467 1466 1462 1459 1457 1456 1455 1453 1451 1450 1449 1447 1444 1443 1441 1438 1436 1435 1433 1432 1431 1430 1428 1427 1425 1423 1420 1419 1418 1416 1414 1411 1407 1405
1454 1456 1458 1460 1461 1462 1462 1462 1462 1461 1460 1458 1455 1453 1451 1450 1449 1448 1446 1445 1444 1442 1440 1437 1435 1433 1430 1429 1427 1426 1426 1425 1423 1422 1419 1418 1415 1413 1411 1407 1406 1403 1401
1448 1448 1450 1452 1454 1455 1456 1456 1456 1455 1454 1453 1451 1450 1449 1446 1443 1443 1441 1441 1440 1438 1436 1434 1431 1429 1426 1424 1423 1421 1420 1419 1418 1416 1414 1412 1410 1409 1407 1404 1401 1398 1395
1443 1441 1442 1443 1445 1447 1449 1450 1451 1450 1449 1448 1446 1445 1444 1443 1440 1437 1437 1435 1436 1434 1432 1430 1427 1425 1423 1421 1419 1417 1414 1414 1413 1411 1409 1407 1405 1403 1402 1399 1397 1394 1391
1436 1434 1434 1436 1438 1441 1443 1444 1445 1445 1443 1443 1442 1440 1440 1437 1438 1434 1432 1431 1430 1430 1427 1425 1424 1421 1418 1417 1415 1413 1410 1409 1406 1404 1403 1402 1400 1399 1397 1396 1393 1390 1388
1428 1426 1426 1429 1431 1434 1436 1437 1438 1439 1438 1437 1437 1435 1435 1433 1432 1431 1428 1426 1426 1424 1423 1421 1419 1417 1414 1413 1411 1409 1406 1404 1401 1398 1396 1395 1393 1391 1390 1389 1387 1386 1384
1421 1420 1420 1422 1425 1427 1428 1430 1431 1432 1431 1431 1430 1430 1431 1429 1426 1426 1423 1421 1420 1420 1418 1417 1414 1412 1410 1408 1406 1403 1400 1397 1394 1392 1390 1388 1386 1384 1383 1382 1380 1378 1377
1416 1414 1414 1416 1419 1421 1422 1423 1423 1425 1425 1425 1425 1423 1425 1424 1422 1420 1419 1415 1414 1413 1413 1412 1411 1407 1405 1402 1400 1396 1394 1391 1389 1386 1384 1382 1380 1378 1376 1375 1373 1372 1369
1410 1409 1409 1411 1414 1415 1415 1415 1417 1418 1418 1418 1418 1418 1418 1418 1417 1415 1415 1411 1409 1406 1406 1406 1405 1403 1400 1397 1394 1391 1389 1386 1384 1381 1378 1376 1374 1372 1369 1368 1365 1364 1361
1404 1404 1405 1406 1409 1409 1410 1411 1411 1412 1412 1412 1411 1411 1412 1412 1411 1409 1408 1406 1404 1401 1400 1400 1399 1397 1394 1392 1389 1386 1384 1382 1379 1377 1374 1371 1369 1366 1364 1362 1359 1357 1354
1398 1399 1401 1402 1403 1405 1406 1406 1406 1407 1407 1407 1406 1405 1406 1406 1404 1403 1403 1402 1399 1397 1395 1394 1394 1391 1389 1386 1384 1381 1379 1377 1374 1371 1369 1366 1363 1360 1357 1355 1353 1350 1346
1391 1393 1395 1396 1397 1398 1399 1400 1400 1401 1401 1400 1401 1400 1400 1401 1399 1397 1397 1396 1393 1391 1389 1389 1387 1385 1383 1381 1378 1376 1372 1370 1368 1365 1362 1359 1356 1353 1351 1348 1346 1343 1339
1386 1387 1389 1390 1392 1393 1394 1393 1394 1394 1394 1395 1396 1394 1394 1395 1394 1392 1391 1390 1386 1385 1384 1383 1381 1379 1378 1375 1373 1370 1366 1363 1360 1357 1354 1352 1349 1346 1343 1340 1338 1335 1332
1382 1382 1383 1385 1386 1385 1387 1388 1388 1388 1388 1389 1390 1388 1388 1388 1388 1387 1385 1383 1380 1379 1379 1377 1376 1374 1372 1369 1367 1363 1360 1357 1354 1351 1348 1344 1341 1338 1335 1332 1330 1327 1325
1376 1377 1378 1379 1379 1379 1380 1382 1383 1383 1382 1383 1382 1384 1382 1382 1382 1381 1379 1377 1375 1374 1373 1371 1370 1369 1366 1364 1361 1357 1354 1351 1347 1344 1341 1337 1334 1331 1327 1325 1322 1318 1316
1371 1371 1371 1370 1371 1373 1374 1375 1375 1376 1377 1377 1377 1377 1376 1375 1376 1375 1373 1371 1370 1369 1367 1366 1365 1363 1361 1358 1355 1352 1348 1345 1342 1338 1334 1331 1327 1323 1320 1316 1313 1311 1307
1363 1364 1364 1364 1365 1366 1368 1370 1369 1369 1368 1370 1371 1371 1370 1369 1369 1369 1367 1366 1365 1363 1362 1361 1360 1358 1356 1353 1349 1346 1342 1338 1335 1332 1328 1323 1319 1315 1311 1308 1305 1302 1299
1353 1354 1355 1357 1358 1360 1361 1362 1362 1362 1362 1363 1364 1365 1364 1363 1363 1363 1361 1360 1359 1358 1357 1356 1355 1353 1351 1348 1345 1341 1337 1333 1329 1325 1321 1316 1311 1306 1302 1298 1296 1293 1291
1344 1344 1346 1347 1348 1350 1351 1352 1353 1354 1355 1356 1356 1357 1358 1357 1357 1357 1355 1355 1354 1353 1352 1351 1350 1348 1345 1342 1339 1336 1332 1328 1324 1319 1314 1308 1303 1298 1295 1290 1287 1285 1283
1333 1335 1336 1337 1338 1338 1340 1341 1343 1345 1347 1348 1349 1350 1350 1350 1351 1350 1349 1349 1348 1348 1347 1346 1344 1342 1340 1337 1333 1330 1327 1323 1318 1313 1308 1302 1296 1291 1288 1284 1280 1278 1275
1322 1325 1327 1327 1329 1329 1331 1333 1335 1337 1339 1341 1342 1343 1344 1344 1344 1344 1344 1344 1343 1342 1342 1341 1339 1337 1335 1331 1328 1325 1321 1317 1312 1307 1301 1295 1289 1285 1281 1277 1274 1271 1269